TimeCDT,TemperatureF,Dew PointF,Humidity,Sea Level PressureIn,VisibilityMPH,Wind Direction,Wind SpeedMPH,Gust SpeedMPH,PrecipitationIn,Events,Conditions,WindDirDegrees,DateUTC
12:53 AM,66.9,57.0,70,29.70,10.0,SSE,5.8,-,N/A,,Partly Cloudy,160,2013-04-10 05:53:00
1:42 AM,55.4,51.8,88,29.77,10.0,WNW,19.6,27.6,N/A,,Overcast,300,2013-04-10 06:42:00
1:53 AM,55.0,51.1,86,29.76,10.0,WNW,17.3,25.3,N/A,,Overcast,300,2013-04-10 06:53:00
2:05 AM,53.6,50.0,88,29.80,10.0,WNW,15.0,24.2,N/A,,Overcast,300,2013-04-10 07:05:00
2:53 AM,53.1,50.0,89,29.75,10.0,North,6.9,-,N/A,,Overcast,350,2013-04-10 07:53:00
3:20 AM,51.8,48.2,88,29.77,10.0,North,8.1,-,N/A,,Overcast,10,2013-04-10 08:20:00
3:43 AM,51.8,48.2,88,29.79,10.0,WNW,4.6,-,N/A,,Overcast,300,2013-04-10 08:43:00
3:53 AM,52.0,48.9,89,29.79,10.0,West,8.1,-,N/A,,Overcast,280,2013-04-10 08:53:00
4:53 AM,48.9,46.9,93,29.81,10.0,NW,10.4,-,0.01,,Overcast,320,2013-04-10 09:53:00
5:53 AM,48.0,46.9,96,29.83,10.0,WNW,4.6,-,0.00,,Overcast,290,2013-04-10 10:53:00
6:13 AM,48.2,46.4,93,29.83,10.0,WNW,12.7,-,0.00,Rain,Light Rain,290,2013-04-10 11:13:00
6:41 AM,46.4,44.6,93,29.85,10.0,NW,12.7,-,0.00,Rain-Thunderstorm,Light Rain,310,2013-04-10 11:41:00
6:53 AM,46.0,44.1,93,29.87,10.0,WSW,9.2,-,0.00,,Overcast,250,2013-04-10 11:53:00
7:53 AM,44.1,43.0,96,29.83,10.0,WNW,5.8,-,0.06,,Overcast,300,2013-04-10 12:53:00
8:10 AM,44.6,42.8,93,29.88,8.0,West,12.7,-,0.01,Rain-Thunderstorm,Light Rain,270,2013-04-10 13:10:00
8:53 AM,42.1,41.0,96,29.83,2.0,NE,5.8,-,0.15,Rain-Thunderstorm,Light Thunderstorms and Rain,50,2013-04-10 13:53:00
9:01 AM,42.8,42.8,100,29.83,3.0,NE,6.9,-,N/A,Rain,Light Rain,50,2013-04-10 14:01:00
9:17 AM,42.8,41.0,93,29.93,5.0,West,19.6,28.8,N/A,Rain-Thunderstorm,Light Rain,270,2013-04-10 14:17:00
9:28 AM,42.8,41.0,93,29.93,2.0,West,15.0,26.5,N/A,Rain-Thunderstorm,Light Thunderstorms and Rain,280,2013-04-10 14:28:00
9:39 AM,41.0,39.2,93,29.89,1.0,NW,12.7,19.6,N/A,Rain-Thunderstorm,Light Thunderstorms and Rain,320,2013-04-10 14:39:00
9:45 AM,41.0,39.2,93,29.89,2.0,NNW,9.2,-,N/A,Rain-Thunderstorm,Light Rain,330,2013-04-10 14:45:00
9:50 AM,41.0,39.2,93,29.88,4.0,North,6.9,-,N/A,Rain-Thunderstorm,Light Rain,10,2013-04-10 14:50:00
9:53 AM,41.0,39.9,96,29.85,4.0,North,11.5,-,N/A,Rain,Rain,360,2013-04-10 14:53:00
10:05 AM,41.0,39.2,93,29.82,4.0,East,12.7,-,0.02,Rain-Thunderstorm,Rain,80,2013-04-10 15:05:00
10:24 AM,42.8,41.0,93,29.88,8.0,West,15.0,20.7,0.05,Rain,Light Rain,260,2013-04-10 15:24:00
10:53 AM,42.1,41.0,96,29.86,10.0,NW,10.4,-,0.05,,Overcast,320,2013-04-10 15:53:00
11:53 AM,42.8,41.0,93,29.87,10.0,NW,6.9,-,N/A,Rain,Light Rain,320,2013-04-10 16:53:00
12:53 PM,42.1,41.0,96,29.83,10.0,NW,10.4,-,0.00,Rain,Light Rain,310,2013-04-10 17:53:00
1:53 PM,42.1,41.0,96,29.87,8.0,WNW,12.7,-,0.01,Rain-Thunderstorm,Light Thunderstorms and Rain,290,2013-04-10 18:53:00
2:01 PM,41.0,39.2,93,29.85,1.8,West,15.0,-,0.07,Rain-Thunderstorm,Heavy Thunderstorms and Rain,280,2013-04-10 19:01:00
2:53 PM,41.0,39.0,93,29.88,7.0,West,12.7,-,0.22,Rain-Thunderstorm,Light Thunderstorms and Rain,270,2013-04-10 19:53:00
3:53 PM,39.9,39.0,97,29.89,9.0,West,18.4,21.9,0.03,Rain-Thunderstorm,Light Thunderstorms and Rain,260,2013-04-10 20:53:00
4:04 PM,39.2,39.2,100,29.82,1.8,WNW,6.9,-,0.05,Rain-Thunderstorm,Heavy Thunderstorms and Rain,300,2013-04-10 21:04:00
4:10 PM,39.2,39.2,100,29.80,3.0,NW,11.5,-,0.06,Rain-Thunderstorm,Thunderstorms and Rain,320,2013-04-10 21:10:00
4:32 PM,39.2,39.2,100,29.81,4.0,NW,12.7,-,0.07,Rain-Thunderstorm,Light Thunderstorms and Rain,310,2013-04-10 21:32:00
4:37 PM,39.2,39.2,100,29.79,10.0,NW,11.5,-,0.07,Rain-Thunderstorm,Light Thunderstorms and Rain,310,2013-04-10 21:37:00
4:44 PM,39.2,39.2,100,29.79,10.0,NW,10.4,-,0.07,Rain,Light Rain,320,2013-04-10 21:44:00
4:53 PM,39.9,39.0,97,29.76,10.0,NNW,11.5,-,0.07,Rain,Light Rain,340,2013-04-10 21:53:00
5:53 PM,39.9,37.9,93,29.85,7.0,West,9.2,-,0.05,Rain,Light Rain,270,2013-04-10 22:53:00
6:39 PM,39.2,37.4,93,29.81,1.8,West,12.7,-,0.01,,Overcast,280,2013-04-10 23:39:00
6:49 PM,39.2,37.4,93,29.82,2.0,WNW,17.3,24.2,0.01,,Overcast,300,2013-04-10 23:49:00
6:53 PM,39.0,37.0,93,29.84,2.0,WNW,15.0,-,0.01,,Overcast,300,2013-04-10 23:53:00
7:53 PM,37.9,36.0,93,29.86,10.0,West,6.9,-,0.00,,Overcast,280,2013-04-11 00:53:00
8:19 PM,37.4,35.6,93,29.84,2.0,WNW,10.4,-,0.00,Rain,Light Rain,290,2013-04-11 01:19:00
8:32 PM,37.4,37.4,100,29.84,3.0,WNW,10.4,-,0.00,,Overcast,290,2013-04-11 01:32:00
8:53 PM,37.9,37.0,97,29.87,4.0,West,8.1,-,0.00,,Overcast,280,2013-04-11 01:53:00
9:53 PM,37.9,36.0,93,29.88,10.0,West,11.5,-,N/A,,Overcast,270,2013-04-11 02:53:00
10:53 PM,37.0,35.1,93,29.91,10.0,West,15.0,-,N/A,,Overcast,270,2013-04-11 03:53:00
11:53 PM,35.1,34.0,96,29.89,10.0,West,13.8,19.6,N/A,,Overcast,280,2013-04-11 04:53:00